This is the latest recevied weather packets stored in our database for station/object Kisslegg. If no packets are shown the sender has not sent any weather packets the latest 10 day(s).
| Time | Temp. | Humidity | Pressure | Rain* | Wind** | Luminosity | Snow |
|---|---|---|---|---|---|---|---|
| 1788148929 | 60° F | 95% | 761.7 mmHg | 0.01 in | - | - | - |
| 1788147129 | 60° F | 94% | 761.5 mmHg | 0 in | - | - | - |
| 1788145329 | 60° F | 94% | 761.5 mmHg | 0 in | - | - | - |
| 1788143529 | 61° F | 92% | 761.5 mmHg | 0 in | - | - | - |
| 1788141729 | 61° F | 90% | 761.2 mmHg | 0 in | - | - | - |
| 1788139931 | 64° F | 85% | 762.3 mmHg | 0 in | - | - | - |
| 1788138129 | 64° F | 85% | 759.7 mmHg | 0 in | - | - | - |
| 1788136332 | 64° F | 82% | 759.6 mmHg | 0 in | - | - | - |
| 1788134532 | 65° F | 82% | 759.6 mmHg | 0 in | - | - | - |
| 1788132731 | 65° F | 81% | 759.8 mmHg | 0 in | - | - | - |
| 1788130931 | 66° F | 81% | 759.8 mmHg | 0 in | - | - | - |
| 1788129131 | 66° F | 81% | 760 mmHg | 0 in | - | - | - |
| 1788127331 | 67° F | 79% | 760.1 mmHg | 0 in | - | - | - |
| 1788125531 | 67° F | 80% | 760.2 mmHg | 0.02 in | - | - | - |
| 1788123730 | 67° F | 79% | 760.4 mmHg | 0.02 in | - | - | - |
| 1788121931 | 67° F | 79% | 760.5 mmHg | 0.02 in | - | - | - |
| 1788120131 | 68° F | 77% | 760.6 mmHg | 0.02 in | - | - | - |
| 1788118330 | 69° F | 75% | 760.5 mmHg | 0.02 in | - | - | - |
| 1788116530 | 70° F | 73% | 760.6 mmHg | 0.02 in | - | - | - |
| 1788114730 | 71° F | 70% | 760.5 mmHg | 0.02 in | - | - | - |
| 1788112931 | 73° F | 69% | 760.3 mmHg | 0.02 in | - | - | - |
| 1788111130 | 73° F | 69% | 760.3 mmHg | 0.02 in | - | - | - |
| 1788109331 | 74° F | 68% | 760.4 mmHg | 0.02 in | - | - | - |
| 1788107531 | 75° F | 63% | 760.3 mmHg | 0.02 in | - | - | - |
| 1788105731 | 76° F | 63% | 760.5 mmHg | 0.02 in | - | - | - |
* Rain since midnight (hover to see other rain measurements)
** Current wind speed in m/s (hover to see current wind gust speed)